Regional Weather Roundup
Issued by NWS

Home | Current Version | Previous Version | Text Only | Print | Product List | Glossary On
Versions: 1 2 3 4 5 6 7 8 9 10 11 12 13 14 15 16 17 18 19 20 21 22 23 24 25 26 27
000
ASUS45 KSLC 272010
RWRUT

UTAH REGIONAL WEATHER ROUNDUP
NATIONAL WEATHER SERVICE SALT LAKE CITY UT
200 PM MDT TUE SEP 27 2016

UTZ001>011-023>025-272100-

NORTHERN UTAH

CITY           SKY/WX    TMP DP  RH WIND       PRES   REMARKS
BRIGHAM CITY     N/A     71  46  40 CALM      30.19F
DUGWAY         MOSUNNY   72  47  41 NW2       30.19F
HILL AFB       SUNNY     72  47  40 VRB5      30.20F
LOGAN          SUNNY     72  46  39 N5        30.19F
OGDEN          SUNNY     71  49  45 NW6       30.18F
PROVO AIRPORT  SUNNY     68  46  45 SW6       30.19F
SALT LAKE CITY MOSUNNY   75  48  38 N6        30.17F
VERNAL         SUNNY     66  46  48 CALM      30.24F
WENDOVER       SUNNY     70  46  43 E7        30.20S
HEBER CITY     SUNNY     73  36  25 CALM      30.20F
WEST JORDAN    SUNNY     72  47  41 NW6       30.20S

$$

UTZ012>022-026-027-272100-

SOUTHERN/CENTRAL UTAH

CITY           SKY/WX    TMP DP  RH WIND       PRES   REMARKS
BLANDING       SUNNY     73  30  20 S7        30.34F
BRYCE CANYON   SUNNY     66  33  29 MISG      30.36F
CEDAR CITY     SUNNY     75  34  22 VRB6      30.20F
DELTA          SUNNY     72  41  33 S3        30.20F
MILFORD        SUNNY     77  35  21 E6        30.18F
MOAB/CYNLANDS  SUNNY     77  35  21 CALM      30.17F
PRICE          SUNNY     71  38  29 VRB6      30.27F
ST GEORGE      CLEAR     84  39  20 NW5       30.07F

$$

REGIONAL REPORTS     COLORADO/ARIZONA

CITY           SKY/WX    TMP DP  RH WIND       PRES   REMARKS
CRAIG, CO      SUNNY     75  27  17 VRB6      30.26F
GRAND JUNCTION SUNNY     76  36  23 VRB5      30.19F
RIFLE          SUNNY     74  34  23 W5        30.21F
MONTROSE       SUNNY     73  36  25 NW8       30.23F
CORTEZ         SUNNY     74  35  24 SW12      30.26F
PAGE, AZ       SUNNY     78  34  20 N8        30.16F
GRAND CANYON   PTSUNNY   66  39  37 NE14      30.30S
KINGMAN        CLOUDY    70  47  43 E16       30.12F
FLAGSTAFF      CLOUDY    58  46  64 S6        30.32S

$$

REGIONAL REPORTS    NEVADA/IDAHO/WYOMING

CITY           SKY/WX    TMP DP  RH WIND       PRES   REMARKS
LAS VEGAS, NV  MOSUNNY   88  32  13 NE7       30.01F
ELY            SUNNY    N/A N/A N/A MISG      30.23F
ELKO           SUNNY     78  37  22 CALM      30.17F
POCATELLO, ID  SUNNY     76  43  30 NW5       30.18F
BURLEY         SUNNY     75  46  35 NE5       30.13F
EVANSTON, WY   SUNNY     68  34  28 VRB3      30.31F
ROCK SPRINGS   SUNNY     68  35  29 N5        30.30F

$$




USA.gov is the U.S. government's official web portal to all federal, state and local government web resources and services.